Powrót do katalogu

SL-14 DEB

LostPO
NORAD 45459·DEBRIS·🇷🇺 Russia

Wystrzelony Aug 15, 1991 z Plesetsk Cosmodrome

Loading…

Następne Przeloty (najbliższe 24 godziny)

TLE

NieaktualneSource: Space-Track

Epoka: Jul 22, 2026, 21:33 UTC

1 45459U 91056CT  26203.89834564  .00009188  00000-0  75210-2 0  9991
2 45459  82.6006  16.5902 0134000 350.9648   8.9102 13.85322802181382

Śledź SL-14 DEB w czasie rzeczywistym z AllMySat

Download on the App Store